Location: Newark
(45.8667°N, 9.7333°E)
Time: 18:13:05
(UTC+00:00)

Transit 4A - Pass Details

Date: 29 January 2020
Orbit: 872 x 973 km, 66.8° (Epoch: 26 February)

Event Time Altitude Azimuth Distance (km) Brightness Sun altitude
Rises 08:31:50 0° 296° (WNW) 3,501 10.3 14.0°
Reaches altitude 10° 08:37:26 10° 339° (NNW) 2,543 9.7 14.6°
Maximum altitude 08:38:09 10° 346° (NNW) 2,526 9.7 14.7°
Drops below altitude 10° 08:38:51 10° 353° (N) 2,539 9.8 14.8°
Sets 08:44:24 0° 36° (NE) 3,471 10.8 15.5°
